Regional Weather Roundup
Issued by NWS

Home | Current Version | Previous Version | Graphics & Text | Print | Product List | Glossary On
Versions: 1 2 3 4 5 6 7 8 9 10 11 12 13 14 15 16 17 18 19 20 21 22 23 24 25 26 27 28 29 30 31 32 33 34 35 36 37 38 39 40 41 42 43 44 45 46 47 48 49 50
000
ASUS43 KIND 241859
RWRIN

WEATHER ROUNDUP FOR INDIANA
NATIONAL WEATHER SERVICE INDIANAPOLIS IN
200 PM EST TUE JAN 24 2017

NOTE: "FAIR" INDICATES FEW OR NO CLOUDS BELOW 12,000 FEET WITH NO
SIGNIFICANT WEATHER AND/OR OBSTRUCTIONS TO VISIBILITY.

* - STATION DOES NOT REPORT WEATHER SUCH AS PRECIPITATION OR FOG.

+ - STATION NOT QUALITY CONTROLLED BY THE NATIONAL WEATHER SERVICE.
    USE DATA WITH CAUTION...ESPECIALLY DEWPOINT AND RELATIVE
    HUMIDITY OBSERVATIONS.

INZ001>003-010>013-019-020-242000-
NORTHWEST INDIANA

CITY           SKY/WX    TMP DP  RH WIND       PRES   REMARKS
GARY /AIRPORT/ CLOUDY    37  32  81 CALM      29.87F
KNOX *+        CLOUDY    37  19  48 NW5       29.85F
MONTICELLO +   CLOUDY    39  32  76 W5        29.86F

$$

LMZ046-743>745-242000-
SOUTHERN LAKE MICHIGAN

STATION/POSITION TIME  TEMP    WIND        PRES    WAVE
                       AIR SEA DIR/SP/G            HT
                 (UTC) (F)     (DEG/KT/KT) (MB)    (FT)
BURNS HARBOR     1840   35     330/  4/  6 1012.2F

$$

INZ004-005-014>016-021>024-242000-
NORTH CENTRAL INDIANA

CITY           SKY/WX    TMP DP  RH WIND       PRES   REMARKS
GOSHEN         CLOUDY    40  32  73 NW12      29.82F
SOUTH BEND     CLOUDY    37  33  85 NW9       29.84F

$$

INZ006>009-017-018-025>027-242000-
NORTHEAST INDIANA

CITY           SKY/WX    TMP DP  RH WIND       PRES   REMARKS
ANGOLA *+      CLOUDY    39  28  65 NW10      29.79S
FORT WAYNE     CLOUDY    41  34  76 NW9       29.83R
KENDALLVILLE + CLOUDY    38  34  84 NW9       29.81S

$$

INZ028-029-035-036-043>045-051>053-242000-
WEST CENTRAL INDIANA

CITY           SKY/WX    TMP DP  RH WIND       PRES   REMARKS
CRAWFORDSVL +  CLOUDY    38  34  88 NW5       29.86F
LAFAYETTE      CLOUDY    38  34  85 W3        29.86F
TERRE HAUTE    CLOUDY    42  33  70 SE3       29.87F

$$

INZ030>032-037>040-046>048-054>057-064-065-242000-
CENTRAL INDIANA

CITY           SKY/WX    TMP DP  RH WIND       PRES   REMARKS
ANDERSON       CLOUDY    39  32  75 W12       29.85F
COLUMBUS       CLOUDY    41  37  87 NW8       29.87F
INDIANAPOLIS   CLOUDY    41  33  73 W7        29.86F
-EAGLE CREEK   CLOUDY    41  32  70 NW7       29.85F
KOKOMO +       CLOUDY    40  33  76 NW8       29.85F
MT COMFORT *+  CLOUDY    39  34  81 W8        29.85F
SHELBYVILLE    CLOUDY    42  33  70 NW7       29.85F

$$

INZ033-034-041-042-049-050-058-059-242000-
EAST CENTRAL INDIANA

CITY           SKY/WX    TMP DP  RH WIND       PRES   REMARKS
MUNCIE         CLOUDY    41  34  76 NW12      29.84S

$$

INZ060-061-067>069-081>083-085>088-242000-
SOUTHWEST INDIANA

CITY           SKY/WX    TMP DP  RH WIND       PRES   REMARKS
EVANSVILLE     CLOUDY    45  34  65 S7        29.90F
HUNTINGBURG *+ CLOUDY    42  34  73 CALM      29.88F

$$

INZ062-063-066-070>080-084-089>092-242000-
SOUTH CENTRAL AND SOUTHEAST INDIANA

CITY           SKY/WX    TMP DP  RH WIND       PRES   REMARKS
BLOOMINGTON    CLOUDY    43  32  65 CALM      29.85F
MADISON *+     CLOUDY    43  32  65 W6        29.87F
SEYMOUR +      CLOUDY    45  34  65 CALM      29.86F

$$




USA.gov is the U.S. government's official web portal to all federal, state and local government web resources and services.